Time,TemperatureF,DewpointF,PressureIn,WindDirection,WindDirectionDegrees,WindSpeedMPH,WindSpeedGustMPH,Humidity,HourlyPrecipIn,Conditions,Clouds,dailyrainin,SoftwareType,DateUTC
2013-04-10 00:00:00,61.2,61.2,29.71,NE,48,0.0,0.0,100,0.00,,,0.00,VWS V14.01,2013-04-10 04:00:00,
2013-04-10 00:03:00,61.2,61.2,29.71,NE,48,0.0,0.0,100,0.00,,,0.00,VWS V14.01,2013-04-10 04:03:00,
2013-04-10 00:08:00,61.6,61.6,29.71,NE,48,0.0,0.0,100,0.00,,,0.00,VWS V14.01,2013-04-10 04:08:00,
2013-04-10 00:10:00,61.6,61.6,29.71,NE,48,0.0,0.0,100,0.00,,,0.00,VWS V14.01,2013-04-10 04:10:00,
2013-04-10 00:13:00,61.6,61.6,29.71,NE,48,0.0,0.0,100,0.00,,,0.00,VWS V14.01,2013-04-10 04:13:00,
2013-04-10 00:18:00,62.1,62.1,29.71,NE,48,0.0,0.0,100,0.00,,,0.00,VWS V14.01,2013-04-10 04:18:00,
2013-04-10 00:20:00,62.1,62.1,29.71,NE,48,0.0,0.0,100,0.00,,,0.00,VWS V14.01,2013-04-10 04:20:00,
2013-04-10 00:23:00,62.3,62.3,29.71,NE,48,0.0,0.0,100,0.00,,,0.00,VWS V14.01,2013-04-10 04:23:00,
2013-04-10 00:28:00,62.3,62.3,29.71,NE,48,0.0,0.0,100,0.00,,,0.00,VWS V14.01,2013-04-10 04:28:00,
2013-04-10 00:30:00,62.1,62.1,29.71,NE,48,0.0,0.0,100,0.00,,,0.00,VWS V14.01,2013-04-10 04:30:00,
2013-04-10 00:33:00,62.1,62.1,29.71,NE,48,0.0,0.0,100,0.00,,,0.00,VWS V14.01,2013-04-10 04:33:00,
2013-04-10 00:38:00,62.1,62.1,29.71,NE,48,0.0,0.0,100,0.00,,,0.00,VWS V14.01,2013-04-10 04:38:00,
2013-04-10 00:40:00,62.0,62.0,29.71,NE,48,0.0,0.0,100,0.00,,,0.00,VWS V14.01,2013-04-10 04:40:00,
2013-04-10 00:43:00,62.0,62.0,29.71,NNE,15,2.7,2.7,100,0.00,,,0.00,VWS V14.01,2013-04-10 04:43:00,
2013-04-10 00:48:00,62.0,62.0,29.71,NNE,23,2.7,2.7,100,0.00,,,0.00,VWS V14.01,2013-04-10 04:48:00,
2013-04-10 00:50:00,62.5,62.5,29.71,NNE,22,4.0,4.0,100,0.00,,,0.00,VWS V14.01,2013-04-10 04:50:00,
2013-04-10 00:53:00,62.7,62.7,29.71,NE,48,2.7,4.0,100,0.00,,,0.00,VWS V14.01,2013-04-10 04:53:00,
2013-04-10 00:58:00,62.7,62.7,29.71,NE,37,4.0,4.0,100,0.00,,,0.00,VWS V14.01,2013-04-10 04:58:00,
2013-04-10 01:00:00,62.7,62.7,29.71,NE,43,3.6,4.0,100,0.00,,,0.00,VWS V14.01,2013-04-10 05:00:00,
2013-04-10 01:03:00,63.2,63.2,29.71,NE,46,3.1,3.6,100,0.00,,,0.00,VWS V14.01,2013-04-10 05:03:00,
2013-04-10 01:08:00,63.4,63.4,29.71,NE,46,2.7,3.6,100,0.00,,,0.00,VWS V14.01,2013-04-10 05:08:00,
2013-04-10 01:10:00,63.8,63.8,29.71,NE,46,2.7,3.6,100,0.00,,,0.00,VWS V14.01,2013-04-10 05:10:00,
2013-04-10 01:13:00,63.8,63.8,29.71,NE,52,2.7,2.7,100,0.00,,,0.00,VWS V14.01,2013-04-10 05:13:00,
2013-04-10 01:18:00,63.9,63.9,29.71,NNE,25,2.2,2.7,100,0.00,,,0.00,VWS V14.01,2013-04-10 05:18:00,
2013-04-10 01:20:00,63.9,63.9,29.71,NNE,25,2.2,2.7,100,0.00,,,0.00,VWS V14.01,2013-04-10 05:20:00,
2013-04-10 01:23:00,63.9,63.9,29.71,NNE,25,2.2,2.2,100,0.00,,,0.00,VWS V14.01,2013-04-10 05:23:00,
2013-04-10 01:28:00,63.9,63.9,29.71,NNE,33,2.2,3.1,100,0.00,,,0.00,VWS V14.01,2013-04-10 05:28:00,
2013-04-10 01:30:00,63.9,63.9,29.71,NNE,33,2.2,3.1,100,0.00,,,0.00,VWS V14.01,2013-04-10 05:30:00,
2013-04-10 01:33:00,63.8,63.8,29.71,NNE,30,3.6,3.6,100,0.00,,,0.00,VWS V14.01,2013-04-10 05:33:00,
2013-04-10 01:38:00,63.8,63.8,29.71,NNE,30,3.6,3.6,100,0.00,,,0.00,VWS V14.01,2013-04-10 05:38:00,
2013-04-10 01:40:00,63.8,63.8,29.71,NNE,30,3.6,3.6,100,0.00,,,0.00,VWS V14.01,2013-04-10 05:40:00,
2013-04-10 01:43:00,63.6,63.6,29.71,NNE,30,3.6,3.6,100,0.00,,,0.00,VWS V14.01,2013-04-10 05:43:00,
2013-04-10 01:48:00,63.4,63.4,29.71,NNE,24,3.1,3.6,100,0.00,,,0.00,VWS V14.01,2013-04-10 05:48:00,
2013-04-10 01:50:00,63.4,63.4,29.71,NNE,24,3.1,3.6,100,0.00,,,0.00,VWS V14.01,2013-04-10 05:50:00,
2013-04-10 01:53:00,63.4,63.4,29.71,NE,38,3.1,3.6,100,0.00,,,0.00,VWS V14.01,2013-04-10 05:53:00,
2013-04-10 01:58:00,63.4,63.4,29.71,NNE,33,3.1,3.6,100,0.00,,,0.00,VWS V14.01,2013-04-10 05:58:00,
2013-04-10 02:00:00,63.4,63.4,29.71,NNE,23,3.6,3.6,100,0.00,,,0.00,VWS V14.01,2013-04-10 06:00:00,
2013-04-10 02:08:00,63.2,63.2,29.71,NE,35,3.1,3.6,100,0.00,,,0.00,VWS V14.01,2013-04-10 06:08:00,
2013-04-10 02:10:00,63.2,63.2,29.71,NE,37,2.2,3.6,100,0.00,,,0.00,VWS V14.01,2013-04-10 06:10:00,
2013-04-10 02:13:00,63.2,63.2,29.71,NE,36,2.7,2.7,100,0.00,,,0.00,VWS V14.01,2013-04-10 06:13:00,
2013-04-10 02:18:00,62.9,62.9,29.71,NE,40,2.7,2.7,100,0.00,,,0.00,VWS V14.01,2013-04-10 06:18:00,
2013-04-10 02:20:00,62.9,62.9,29.71,NE,40,3.1,3.1,100,0.00,,,0.00,VWS V14.01,2013-04-10 06:20:00,
2013-04-10 02:23:00,62.9,62.9,29.71,NE,43,2.7,3.1,100,0.00,,,0.00,VWS V14.01,2013-04-10 06:23:00,
2013-04-10 02:28:00,62.7,62.7,29.71,NNE,27,3.1,3.1,100,0.00,,,0.00,VWS V14.01,2013-04-10 06:28:00,
2013-04-10 02:30:00,62.7,62.7,29.71,NNE,27,3.1,3.1,100,0.00,,,0.00,VWS V14.01,2013-04-10 06:30:00,
2013-04-10 02:33:00,62.5,62.5,29.71,NNE,25,0.0,3.1,100,0.00,,,0.00,VWS V14.01,2013-04-10 06:33:00,
2013-04-10 02:38:00,62.5,62.5,29.68,NNE,24,2.7,3.1,100,0.00,,,0.00,VWS V14.01,2013-04-10 06:38:00,
2013-04-10 02:40:00,62.5,62.5,29.68,NNE,24,2.7,3.1,100,0.00,,,0.00,VWS V14.01,2013-04-10 06:40:00,
2013-04-10 02:43:00,62.5,62.5,29.68,NNE,26,3.1,3.1,100,0.00,,,0.00,VWS V14.01,2013-04-10 06:43:00,
2013-04-10 02:48:00,62.5,62.5,29.68,NNE,26,0.0,3.1,100,0.00,,,0.00,VWS V14.01,2013-04-10 06:48:00,
2013-04-10 02:50:00,61.6,61.6,29.68,NNE,26,0.0,3.1,100,0.00,,,0.00,VWS V14.01,2013-04-10 06:50:00,
2013-04-10 02:53:00,61.4,61.4,29.68,NNE,26,0.0,0.0,100,0.00,,,0.00,VWS V14.01,2013-04-10 06:53:00,
2013-04-10 02:58:00,61.1,61.1,29.68,NNE,26,0.0,0.0,100,0.00,,,0.00,VWS V14.01,2013-04-10 06:58:00,
2013-04-10 03:00:00,60.9,60.9,29.68,NNE,26,0.0,0.0,100,0.00,,,0.00,VWS V14.01,2013-04-10 07:00:00,
2013-04-10 03:03:00,60.9,60.9,29.68,NNE,26,0.0,0.0,100,0.00,,,0.00,VWS V14.01,2013-04-10 07:03:00,
2013-04-10 03:08:00,60.9,60.9,29.68,NNE,26,0.0,0.0,100,0.00,,,0.00,VWS V14.01,2013-04-10 07:08:00,
2013-04-10 03:10:00,60.9,60.9,29.68,NNE,26,0.0,0.0,100,0.00,,,0.00,VWS V14.01,2013-04-10 07:10:00,
2013-04-10 03:13:00,60.5,60.5,29.68,NNE,23,0.0,0.0,100,0.00,,,0.00,VWS V14.01,2013-04-10 07:13:00,
2013-04-10 03:18:00,60.3,60.3,29.68,NNE,23,0.0,0.0,100,0.00,,,0.00,VWS V14.01,2013-04-10 07:18:00,
2013-04-10 03:20:00,60.3,60.3,29.68,NNE,23,0.0,0.0,100,0.00,,,0.00,VWS V14.01,2013-04-10 07:20:00,
2013-04-10 03:23:00,60.3,60.3,29.68,NNE,23,0.0,0.0,100,0.00,,,0.00,VWS V14.01,2013-04-10 07:23:00,
2013-04-10 03:28:00,60.0,60.0,29.68,NNE,23,0.0,0.0,100,0.00,,,0.00,VWS V14.01,2013-04-10 07:28:00,
2013-04-10 03:30:00,60.0,60.0,29.68,NNE,23,0.0,0.0,100,0.00,,,0.00,VWS V14.01,2013-04-10 07:30:00,
2013-04-10 03:33:00,60.0,60.0,29.68,NNE,23,0.0,0.0,100,0.00,,,0.00,VWS V14.01,2013-04-10 07:33:00,
2013-04-10 03:38:00,59.8,59.8,29.68,NNE,23,0.0,0.0,100,0.00,,,0.00,VWS V14.01,2013-04-10 07:38:00,
2013-04-10 03:40:00,59.8,59.8,29.68,NNE,23,0.0,0.0,100,0.00,,,0.00,VWS V14.01,2013-04-10 07:40:00,
2013-04-10 03:48:00,59.6,59.6,29.68,NE,46,0.0,0.0,100,0.00,,,0.00,VWS V14.01,2013-04-10 07:48:00,
2013-04-10 03:50:00,59.6,59.6,29.68,NE,46,0.0,0.0,100,0.00,,,0.00,VWS V14.01,2013-04-10 07:50:00,
2013-04-10 03:53:00,59.6,59.6,29.68,NE,46,0.0,0.0,100,0.00,,,0.00,VWS V14.01,2013-04-10 07:53:00,
2013-04-10 03:58:00,59.4,59.4,29.68,NE,46,0.0,0.0,100,0.00,,,0.00,VWS V14.01,2013-04-10 07:58:00,
2013-04-10 04:00:00,59.4,59.4,29.68,NE,46,0.0,0.0,100,0.00,,,0.00,VWS V14.01,2013-04-10 08:00:00,
2013-04-10 04:03:00,59.4,59.4,29.68,NE,46,0.0,0.0,100,0.00,,,0.00,VWS V14.01,2013-04-10 08:03:00,
2013-04-10 04:08:00,59.4,59.4,29.68,NE,46,0.0,0.0,100,0.00,,,0.00,VWS V14.01,2013-04-10 08:08:00,
2013-04-10 04:10:00,59.4,59.4,29.68,NE,46,0.0,0.0,100,0.00,,,0.00,VWS V14.01,2013-04-10 08:10:00,
2013-04-10 04:13:00,59.4,59.4,29.68,NE,42,0.0,0.0,100,0.00,,,0.00,VWS V14.01,2013-04-10 08:13:00,
2013-04-10 04:18:00,59.4,59.4,29.68,NE,41,0.0,0.0,100,0.00,,,0.00,VWS V14.01,2013-04-10 08:18:00,
2013-04-10 04:20:00,59.4,59.4,29.68,NE,41,0.0,0.0,100,0.00,,,0.00,VWS V14.01,2013-04-10 08:20:00,
2013-04-10 04:28:00,59.4,59.4,29.68,NNE,32,0.0,0.0,100,0.00,,,0.00,VWS V14.01,2013-04-10 08:28:00,
2013-04-10 04:30:00,59.4,59.4,29.68,NNE,32,0.0,0.0,100,0.00,,,0.00,VWS V14.01,2013-04-10 08:30:00,
2013-04-10 04:33:00,59.4,59.4,29.68,NNE,31,0.0,2.2,100,0.00,,,0.00,VWS V14.01,2013-04-10 08:33:00,
2013-04-10 04:38:00,59.4,59.4,29.68,NNE,31,0.0,2.2,100,0.00,,,0.00,VWS V14.01,2013-04-10 08:38:00,
2013-04-10 04:40:00,59.4,59.4,29.68,NNE,31,0.0,2.2,100,0.00,,,0.00,VWS V14.01,2013-04-10 08:40:00,
2013-04-10 04:43:00,59.8,59.8,29.68,NNE,30,0.0,0.0,100,0.00,,,0.00,VWS V14.01,2013-04-10 08:43:00,
2013-04-10 04:48:00,59.8,59.8,29.68,North,5,2.7,2.7,100,0.00,,,0.00,VWS V14.01,2013-04-10 08:48:00,
2013-04-10 04:50:00,59.8,59.8,29.68,North,5,2.7,2.7,100,0.00,,,0.00,VWS V14.01,2013-04-10 08:50:00,
2013-04-10 04:54:00,60.0,60.0,29.68,North,5,2.7,2.7,100,0.00,,,0.00,VWS V14.01,2013-04-10 08:54:00,
2013-04-10 04:59:00,60.0,60.0,29.68,NE,36,4.0,4.0,100,0.00,,,0.00,VWS V14.01,2013-04-10 08:59:00,
2013-04-10 05:00:00,60.0,60.0,29.68,NE,36,4.0,4.0,100,0.00,,,0.00,VWS V14.01,2013-04-10 09:00:00,
2013-04-10 05:04:00,60.0,60.0,29.68,NE,34,0.0,4.0,100,0.00,,,0.00,VWS V14.01,2013-04-10 09:04:00,
2013-04-10 05:09:00,60.0,60.0,29.68,NE,35,0.0,4.0,100,0.00,,,0.00,VWS V14.01,2013-04-10 09:09:00,
2013-04-10 05:10:00,60.0,60.0,29.68,NE,35,0.0,4.0,100,0.00,,,0.00,VWS V14.01,2013-04-10 09:10:00,
2013-04-10 05:14:00,60.0,60.0,29.68,NE,36,2.7,3.6,100,0.00,,,0.00,VWS V14.01,2013-04-10 09:14:00,
2013-04-10 05:19:00,60.0,60.0,29.68,NE,38,0.0,3.6,100,0.00,,,0.00,VWS V14.01,2013-04-10 09:19:00,
2013-04-10 05:20:00,60.0,60.0,29.68,NE,38,0.0,3.6,100,0.00,,,0.00,VWS V14.01,2013-04-10 09:20:00,
2013-04-10 05:24:00,59.6,59.6,29.68,NNE,30,2.7,2.7,100,0.00,,,0.00,VWS V14.01,2013-04-10 09:24:00,
2013-04-10 05:29:00,59.4,59.4,29.68,NNE,30,0.0,2.7,100,0.00,,,0.00,VWS V14.01,2013-04-10 09:29:00,
2013-04-10 05:30:00,59.4,59.4,29.68,North,9,0.0,2.7,100,0.00,,,0.00,VWS V14.01,2013-04-10 09:30:00,
2013-04-10 05:34:00,59.6,59.6,29.68,North,9,0.0,0.0,100,0.00,,,0.00,VWS V14.01,2013-04-10 09:34:00,
2013-04-10 05:39:00,59.6,59.6,29.68,North,9,3.6,3.6,100,0.00,,,0.00,VWS V14.01,2013-04-10 09:39:00,
2013-04-10 05:40:00,59.6,59.6,29.68,North,9,3.6,3.6,100,0.00,,,0.00,VWS V14.01,2013-04-10 09:40:00,
2013-04-10 05:44:00,59.6,59.6,29.68,NE,38,2.7,3.6,100,0.00,,,0.00,VWS V14.01,2013-04-10 09:44:00,
2013-04-10 05:49:00,59.6,59.6,29.68,NNE,24,2.7,3.6,100,0.00,,,0.00,VWS V14.01,2013-04-10 09:49:00,
2013-04-10 05:50:00,59.6,59.6,29.68,NNE,24,2.7,3.6,100,0.00,,,0.00,VWS V14.01,2013-04-10 09:50:00,
2013-04-10 05:59:00,59.6,59.6,29.65,NE,38,3.1,3.1,100,0.00,,,0.00,VWS V14.01,2013-04-10 09:59:00,
2013-04-10 06:00:00,59.6,59.6,29.65,NE,38,3.1,3.1,100,0.00,,,0.00,VWS V14.01,2013-04-10 10:00:00,
2013-04-10 06:04:00,59.6,59.6,29.65,NNE,30,3.1,3.1,100,0.00,,,0.00,VWS V14.01,2013-04-10 10:04:00,
2013-04-10 06:09:00,59.6,59.6,29.65,NE,35,2.7,3.1,100,0.00,,,0.00,VWS V14.01,2013-04-10 10:09:00,
2013-04-10 06:10:00,59.6,59.6,29.65,NE,35,2.7,3.1,100,0.00,,,0.00,VWS V14.01,2013-04-10 10:10:00,
2013-04-10 06:14:00,59.6,59.6,29.65,NNE,32,4.0,4.0,100,0.00,,,0.00,VWS V14.01,2013-04-10 10:14:00,
2013-04-10 06:19:00,59.6,59.6,29.65,North,6,2.2,4.0,100,0.00,,,0.00,VWS V14.01,2013-04-10 10:19:00,
2013-04-10 06:20:00,59.6,59.6,29.65,North,8,3.6,4.0,100,0.00,,,0.00,VWS V14.01,2013-04-10 10:20:00,
2013-04-10 06:29:00,59.6,59.6,29.65,NNE,30,2.7,3.6,100,0.00,,,0.00,VWS V14.01,2013-04-10 10:29:00,
2013-04-10 06:30:00,59.6,59.6,29.65,NNE,30,2.7,3.6,100,0.00,,,0.00,VWS V14.01,2013-04-10 10:30:00,
2013-04-10 06:34:00,59.6,59.6,29.65,NNE,22,3.6,3.6,100,0.00,,,0.00,VWS V14.01,2013-04-10 10:34:00,
2013-04-10 06:39:00,59.6,59.6,29.65,NNE,30,2.7,3.6,100,0.00,,,0.00,VWS V14.01,2013-04-10 10:39:00,
2013-04-10 06:40:00,59.6,59.6,29.65,NNE,30,3.1,3.6,100,0.00,,,0.00,VWS V14.01,2013-04-10 10:40:00,
2013-04-10 06:44:00,59.3,59.3,29.65,NNE,24,3.1,3.1,100,0.00,,,0.00,VWS V14.01,2013-04-10 10:44:00,
2013-04-10 06:49:00,59.3,59.3,29.65,NNE,20,2.7,4.0,100,0.00,,,0.00,VWS V14.01,2013-04-10 10:49:00,
2013-04-10 06:50:00,59.3,59.3,29.65,NNE,20,2.7,4.0,100,0.00,,,0.00,VWS V14.01,2013-04-10 10:50:00,
2013-04-10 06:54:00,59.3,59.3,29.65,NNE,26,3.1,3.1,100,0.00,,,0.00,VWS V14.01,2013-04-10 10:54:00,
2013-04-10 06:59:00,59.3,59.3,29.65,NNE,32,3.6,3.6,100,0.00,,,0.00,VWS V14.01,2013-04-10 10:59:00,
2013-04-10 07:00:00,59.3,59.3,29.65,NNE,32,3.6,3.6,100,0.00,,,0.00,VWS V14.01,2013-04-10 11:00:00,
2013-04-10 07:04:00,59.3,59.3,29.65,NNE,25,2.7,3.6,100,0.00,,,0.00,VWS V14.01,2013-04-10 11:04:00,
2013-04-10 07:09:00,59.4,59.4,29.65,NNE,21,4.0,4.0,100,0.00,,,0.00,VWS V14.01,2013-04-10 11:09:00,
2013-04-10 07:10:00,59.4,59.4,29.65,North,7,3.1,4.0,100,0.00,,,0.00,VWS V14.01,2013-04-10 11:10:00,
2013-04-10 07:19:00,59.4,59.4,29.65,NE,35,3.1,3.6,100,0.00,,,0.00,VWS V14.01,2013-04-10 11:19:00,
2013-04-10 07:20:00,59.4,59.4,29.65,NE,35,3.1,3.6,100,0.00,,,0.00,VWS V14.01,2013-04-10 11:20:00,
2013-04-10 07:24:00,59.4,59.4,29.65,NE,38,4.0,5.4,100,0.00,,,0.00,VWS V14.01,2013-04-10 11:24:00,
2013-04-10 07:29:00,59.4,59.4,29.65,NNE,22,3.6,5.4,100,0.00,,,0.00,VWS V14.01,2013-04-10 11:29:00,
2013-04-10 07:30:00,59.4,59.4,29.65,NNE,22,3.6,5.4,100,0.00,,,0.00,VWS V14.01,2013-04-10 11:30:00,
2013-04-10 07:34:00,59.4,59.4,29.65,NNE,26,3.6,4.9,100,0.00,,,0.00,VWS V14.01,2013-04-10 11:34:00,
2013-04-10 07:39:00,59.6,59.6,29.65,NNE,24,2.7,4.9,100,0.00,,,0.00,VWS V14.01,2013-04-10 11:39:00,
2013-04-10 07:40:00,59.6,59.6,29.65,NNE,24,2.7,4.9,100,0.00,,,0.00,VWS V14.01,2013-04-10 11:40:00,
2013-04-10 07:44:00,59.6,59.6,29.65,NNE,22,4.0,4.0,100,0.00,,,0.00,VWS V14.01,2013-04-10 11:44:00,
2013-04-10 07:49:00,59.6,59.6,29.65,NNE,30,3.6,4.9,100,0.00,,,0.00,VWS V14.01,2013-04-10 11:49:00,
2013-04-10 07:50:00,59.6,59.6,29.65,NNE,19,3.6,4.9,100,0.00,,,0.00,VWS V14.01,2013-04-10 11:50:00,
2013-04-10 07:59:00,60.2,60.2,29.65,NNE,22,4.0,4.0,100,0.00,,,0.00,VWS V14.01,2013-04-10 11:59:00,
2013-04-10 08:00:00,60.2,60.2,29.65,NNE,22,4.0,4.0,100,0.00,,,0.00,VWS V14.01,2013-04-10 12:00:00,
2013-04-10 08:04:00,60.3,60.3,29.65,NE,41,3.6,4.0,100,0.00,,,0.00,VWS V14.01,2013-04-10 12:04:00,
2013-04-10 08:09:00,60.3,60.3,29.68,NNE,26,3.1,4.9,100,0.00,,,0.00,VWS V14.01,2013-04-10 12:09:00,
2013-04-10 08:10:00,60.3,60.3,29.68,NNE,26,3.1,4.9,100,0.00,,,0.00,VWS V14.01,2013-04-10 12:10:00,
2013-04-10 08:14:00,60.3,60.3,29.68,NNE,28,4.9,4.9,100,0.00,,,0.00,VWS V14.01,2013-04-10 12:14:00,
2013-04-10 08:19:00,61.4,61.4,29.68,NNE,33,4.0,4.9,100,0.00,,,0.00,VWS V14.01,2013-04-10 12:19:00,
2013-04-10 08:20:00,61.4,61.4,29.68,NNE,33,4.0,4.9,100,0.00,,,0.00,VWS V14.01,2013-04-10 12:20:00,
2013-04-10 08:24:00,62.1,62.1,29.68,North,353,4.0,4.0,100,0.00,,,0.00,VWS V14.01,2013-04-10 12:24:00,
2013-04-10 08:29:00,62.3,62.3,29.68,North,9,4.9,5.4,100,0.00,,,0.00,VWS V14.01,2013-04-10 12:29:00,
2013-04-10 08:30:00,62.3,62.3,29.68,North,9,4.9,5.4,100,0.00,,,0.00,VWS V14.01,2013-04-10 12:30:00,
2013-04-10 08:34:00,63.6,63.6,29.68,NE,44,5.8,5.8,100,0.00,,,0.00,VWS V14.01,2013-04-10 12:34:00,
2013-04-10 08:39:00,64.1,64.1,29.68,NE,48,3.6,5.8,100,0.00,,,0.00,VWS V14.01,2013-04-10 12:39:00,
2013-04-10 08:40:00,64.1,64.1,29.68,NNE,33,4.0,5.8,100,0.00,,,0.00,VWS V14.01,2013-04-10 12:40:00,
2013-04-10 08:44:00,64.8,64.8,29.68,NE,42,4.0,6.3,100,0.00,,,0.00,VWS V14.01,2013-04-10 12:44:00,
2013-04-10 08:49:00,64.8,64.8,29.68,NE,37,5.4,6.3,100,0.00,,,0.00,VWS V14.01,2013-04-10 12:49:00,
2013-04-10 08:50:00,64.8,64.8,29.68,NE,37,5.4,6.3,100,0.00,,,0.00,VWS V14.01,2013-04-10 12:50:00,
2013-04-10 08:59:00,65.6,65.6,29.68,NNE,32,4.0,6.7,100,0.00,,,0.00,VWS V14.01,2013-04-10 12:59:00,
2013-04-10 09:00:00,65.6,65.6,29.68,NE,46,5.8,6.7,100,0.00,,,0.00,VWS V14.01,2013-04-10 13:00:00,
2013-04-10 09:04:00,66.5,66.5,29.68,NE,46,5.8,5.8,100,0.00,,,0.00,VWS V14.01,2013-04-10 13:04:00,
2013-04-10 09:09:00,67.0,67.0,29.68,NNE,33,7.6,7.6,100,0.00,,,0.00,VWS V14.01,2013-04-10 13:09:00,
2013-04-10 09:10:00,67.0,67.0,29.68,NNE,33,7.6,7.6,100,0.00,,,0.00,VWS V14.01,2013-04-10 13:10:00,
2013-04-10 09:14:00,67.0,66.7,29.68,ENE,61,8.1,8.1,99,0.00,,,0.00,VWS V14.01,2013-04-10 13:14:00,
2013-04-10 09:19:00,67.5,66.5,29.68,ENE,61,8.1,8.1,97,0.00,,,0.00,VWS V14.01,2013-04-10 13:19:00,
2013-04-10 09:20:00,67.7,66.0,29.68,ENE,61,8.1,8.1,94,0.00,,,0.00,VWS V14.01,2013-04-10 13:20:00,
2013-04-10 09:24:00,67.7,66.0,29.68,NNE,22,5.4,8.1,94,0.00,,,0.00,VWS V14.01,2013-04-10 13:24:00,
2013-04-10 09:29:00,68.1,64.2,29.68,NE,38,4.0,8.1,87,0.00,,,0.00,VWS V14.01,2013-04-10 13:29:00,
2013-04-10 09:30:00,68.1,64.2,29.68,NE,38,4.0,8.1,87,0.00,,,0.00,VWS V14.01,2013-04-10 13:30:00,
2013-04-10 09:34:00,68.8,64.2,29.68,NE,48,6.3,6.3,85,0.00,,,0.00,VWS V14.01,2013-04-10 13:34:00,
2013-04-10 09:39:00,68.6,62.4,29.68,NNE,29,8.1,8.1,80,0.00,,,0.00,VWS V14.01,2013-04-10 13:39:00,
2013-04-10 09:40:00,68.6,62.4,29.68,NNE,31,6.3,8.1,80,0.00,,,0.00,VWS V14.01,2013-04-10 13:40:00,
2013-04-10 09:49:00,69.2,62.1,29.71,ENE,66,8.7,8.7,78,0.00,,,0.00,VWS V14.01,2013-04-10 13:49:00,
2013-04-10 09:50:00,69.2,62.1,29.71,ENE,66,8.7,8.7,78,0.00,,,0.00,VWS V14.01,2013-04-10 13:50:00,
2013-04-10 09:54:00,69.2,62.1,29.71,ENE,66,6.3,8.7,78,0.00,,,0.00,VWS V14.01,2013-04-10 13:54:00,
2013-04-10 09:59:00,69.5,62.4,29.71,NE,54,6.3,8.7,78,0.00,,,0.00,VWS V14.01,2013-04-10 13:59:00,
2013-04-10 10:00:00,69.5,62.4,29.71,NE,54,6.3,8.7,78,0.00,,,0.00,VWS V14.01,2013-04-10 14:00:00,
2013-04-10 10:09:00,70.4,64.1,29.71,NE,34,8.1,8.1,80,0.00,,,0.00,VWS V14.01,2013-04-10 14:09:00,
2013-04-10 10:10:00,70.4,63.3,29.71,NE,34,8.1,8.1,78,0.00,,,0.00,VWS V14.01,2013-04-10 14:10:00,
2013-04-10 10:14:00,70.4,62.5,29.71,NE,46,6.7,8.1,76,0.00,,,0.00,VWS V14.01,2013-04-10 14:14:00,
2013-04-10 10:19:00,70.4,62.5,29.71,NNE,20,10.1,10.1,76,0.00,,,0.00,VWS V14.01,2013-04-10 14:19:00,
2013-04-10 10:20:00,70.4,62.5,29.71,ENE,62,5.4,10.1,76,0.00,,,0.00,VWS V14.01,2013-04-10 14:20:00,
2013-04-10 10:24:00,70.8,61.9,29.71,NE,50,8.3,8.3,74,0.00,,,0.00,VWS V14.01,2013-04-10 14:24:00,
2013-04-10 10:29:00,71.0,62.1,29.71,NNE,28,8.7,8.7,74,0.00,,,0.00,VWS V14.01,2013-04-10 14:29:00,
2013-04-10 10:30:00,71.0,62.1,29.71,NNE,28,8.7,8.7,74,0.00,,,0.00,VWS V14.01,2013-04-10 14:30:00,
2013-04-10 10:34:00,71.0,62.1,29.71,NE,43,6.3,8.7,74,0.00,,,0.00,VWS V14.01,2013-04-10 14:34:00,
2013-04-10 10:39:00,71.7,62.8,29.71,ENE,62,5.8,8.7,74,0.00,,,0.00,VWS V14.01,2013-04-10 14:39:00,
2013-04-10 10:40:00,71.7,62.8,29.71,ENE,62,5.8,8.7,74,0.00,,,0.00,VWS V14.01,2013-04-10 14:40:00,
2013-04-10 10:44:00,71.7,62.8,29.71,NE,45,5.8,5.8,74,0.00,,,0.00,VWS V14.01,2013-04-10 14:44:00,
2013-04-10 10:49:00,71.7,62.8,29.71,North,10,5.8,5.8,74,0.00,,,0.00,VWS V14.01,2013-04-10 14:49:00,
2013-04-10 10:50:00,71.7,62.8,29.71,North,10,5.8,5.8,74,0.00,,,0.00,VWS V14.01,2013-04-10 14:50:00,
2013-04-10 10:59:00,73.3,58.5,29.71,NE,43,10.5,10.5,60,0.00,,,0.00,VWS V14.01,2013-04-10 14:59:00,
2013-04-10 11:00:00,73.3,58.5,29.71,NE,43,10.5,10.5,60,0.00,,,0.00,VWS V14.01,2013-04-10 15:00:00,
2013-04-10 11:04:00,73.5,59.7,29.71,North,353,6.3,10.5,62,0.00,,,0.00,VWS V14.01,2013-04-10 15:04:00,
2013-04-10 11:09:00,74.2,58.2,29.71,NE,35,5.8,10.5,58,0.00,,,0.00,VWS V14.01,2013-04-10 15:09:00,
2013-04-10 11:10:00,74.2,58.2,29.71,NE,35,5.8,10.5,58,0.00,,,0.00,VWS V14.01,2013-04-10 15:10:00,
2013-04-10 11:14:00,74.2,58.2,29.71,NE,41,7.6,7.6,58,0.00,,,0.00,VWS V14.01,2013-04-10 15:14:00,
2013-04-10 11:19:00,74.2,57.1,29.71,NE,47,8.7,8.7,55,0.00,,,0.00,VWS V14.01,2013-04-10 15:19:00,
2013-04-10 11:20:00,74.2,57.1,29.71,NE,47,8.7,8.7,55,0.00,,,0.00,VWS V14.01,2013-04-10 15:20:00,
2013-04-10 11:24:00,74.6,58.6,29.71,NE,47,8.7,8.7,58,0.00,,,0.00,VWS V14.01,2013-04-10 15:24:00,
2013-04-10 11:29:00,74.9,56.6,29.71,North,349,3.6,8.7,53,0.00,,,0.00,VWS V14.01,2013-04-10 15:29:00,
2013-04-10 11:30:00,74.9,56.6,29.71,North,349,3.6,8.7,53,0.00,,,0.00,VWS V14.01,2013-04-10 15:30:00,
2013-04-10 11:35:00,74.9,56.6,29.74,NE,49,7.6,7.6,53,0.00,,,0.00,VWS V14.01,2013-04-10 15:35:00,
2013-04-10 11:40:00,75.3,58.1,29.74,NE,50,5.8,7.6,55,0.00,,,0.00,VWS V14.01,2013-04-10 15:40:00,
2013-04-10 11:45:00,75.6,58.5,29.74,NE,45,7.6,7.6,55,0.00,,,0.00,VWS V14.01,2013-04-10 15:45:00,
2013-04-10 11:50:00,75.6,58.5,29.74,ENE,61,3.6,7.6,55,0.00,,,0.00,VWS V14.01,2013-04-10 15:50:00,
2013-04-10 11:55:00,76.5,58.1,29.74,East,93,5.8,5.8,53,0.00,,,0.00,VWS V14.01,2013-04-10 15:55:00,
2013-04-10 12:00:00,76.7,58.3,29.74,ENE,63,6.3,6.3,53,0.00,,,0.00,VWS V14.01,2013-04-10 16:00:00,
2013-04-10 12:05:00,76.7,58.3,29.74,NNE,33,6.3,6.3,53,0.00,,,0.00,VWS V14.01,2013-04-10 16:05:00,
2013-04-10 12:10:00,77.3,57.5,29.74,NNE,22,3.6,6.3,51,0.00,,,0.00,VWS V14.01,2013-04-10 16:10:00,
2013-04-10 12:15:00,77.3,58.8,29.74,NNE,22,3.6,3.6,53,0.00,,,0.00,VWS V14.01,2013-04-10 16:15:00,
2013-04-10 12:19:00,77.6,57.9,29.74,ENE,66,3.6,5.4,51,0.00,,,0.00,VWS V14.01,2013-04-10 16:19:00,
2013-04-10 12:20:00,77.6,57.9,29.74,ENE,66,3.6,3.6,51,0.00,,,0.00,VWS V14.01,2013-04-10 16:20:00,
2013-04-10 12:25:00,77.3,57.5,29.74,NNE,14,5.8,6.3,51,0.00,,,0.00,VWS V14.01,2013-04-10 16:25:00,
2013-04-10 12:30:00,77.3,57.5,29.74,NNW,337,7.6,7.6,51,0.00,,,0.00,VWS V14.01,2013-04-10 16:30:00,
2013-04-10 12:35:00,77.6,59.1,29.71,NE,49,6.3,7.6,53,0.00,,,0.00,VWS V14.01,2013-04-10 16:35:00,
2013-04-10 12:40:00,78.0,58.2,29.71,NE,49,6.3,7.6,51,0.00,,,0.00,VWS V14.01,2013-04-10 16:40:00,
2013-04-10 12:45:00,78.2,58.3,29.71,NNE,28,3.6,6.3,51,0.00,,,0.00,VWS V14.01,2013-04-10 16:45:00,
2013-04-10 12:50:00,78.2,58.3,29.71,WNW,297,8.1,8.1,51,0.00,,,0.00,VWS V14.01,2013-04-10 16:50:00,
2013-04-10 12:55:00,78.3,58.5,29.71,NNE,12,4.0,8.1,51,0.00,,,0.00,VWS V14.01,2013-04-10 16:55:00,
2013-04-10 13:00:00,78.5,58.7,29.71,ENE,73,5.8,5.8,51,0.00,,,0.00,VWS V14.01,2013-04-10 17:00:00,
2013-04-10 13:05:00,78.5,58.7,29.71,ENE,73,5.8,5.8,51,0.00,,,0.00,VWS V14.01,2013-04-10 17:05:00,
2013-04-10 13:10:00,79.4,58.2,29.71,NNE,21,6.3,6.3,48,0.00,,,0.00,VWS V14.01,2013-04-10 17:10:00,
2013-04-10 13:15:00,79.4,58.2,29.71,North,353,4.0,6.3,48,0.00,,,0.00,VWS V14.01,2013-04-10 17:15:00,
2013-04-10 13:20:00,79.2,58.0,29.71,NE,39,5.4,5.4,48,0.00,,,0.00,VWS V14.01,2013-04-10 17:20:00,
2013-04-10 13:25:00,79.4,58.2,29.71,NE,41,5.8,5.8,48,0.00,,,0.00,VWS V14.01,2013-04-10 17:25:00,
2013-04-10 13:30:00,79.4,58.2,29.71,NNE,29,7.6,7.6,48,0.00,,,0.00,VWS V14.01,2013-04-10 17:30:00,
2013-04-10 13:35:00,79.8,58.5,29.71,NNE,20,5.4,7.6,48,0.00,,,0.00,VWS V14.01,2013-04-10 17:35:00,
2013-04-10 13:40:00,80.1,58.9,29.71,North,0,7.6,7.6,48,0.00,,,0.00,VWS V14.01,2013-04-10 17:40:00,
2013-04-10 13:45:00,80.5,59.2,29.71,ENE,62,7.2,7.6,48,0.00,,,0.00,VWS V14.01,2013-04-10 17:45:00,
2013-04-10 13:50:00,80.5,59.2,29.71,NE,52,4.0,4.0,48,0.00,,,0.00,VWS V14.01,2013-04-10 17:50:00,
2013-04-10 13:55:00,80.1,57.5,29.71,NNE,29,8.7,8.7,46,0.00,,,0.00,VWS V14.01,2013-04-10 17:55:00,
2013-04-10 14:00:00,80.1,57.5,29.71,NNE,29,8.7,8.7,46,0.00,,,0.00,VWS V14.01,2013-04-10 18:00:00,
2013-04-10 14:05:00,81.8,59.0,29.71,NE,52,4.0,8.7,46,0.00,,,0.00,VWS V14.01,2013-04-10 18:05:00,
2013-04-10 14:09:00,81.6,58.8,29.71,WNW,288,5.4,8.7,46,0.00,,,0.00,VWS V14.01,2013-04-10 18:09:00,
2013-04-10 14:10:00,81.6,58.8,29.71,WNW,288,5.4,5.4,46,0.00,,,0.00,VWS V14.01,2013-04-10 18:10:00,
2013-04-10 14:15:00,81.6,58.8,29.71,NE,56,10.5,10.5,46,0.00,,,0.00,VWS V14.01,2013-04-10 18:15:00,
2013-04-10 14:19:00,81.4,58.7,29.71,NNW,332,5.8,10.5,46,0.00,,,0.00,VWS V14.01,2013-04-10 18:19:00,
2013-04-10 14:20:00,81.4,58.7,29.71,NNW,332,5.8,10.5,46,0.00,,,0.00,VWS V14.01,2013-04-10 18:20:00,
2013-04-10 14:25:00,81.2,58.5,29.71,NNW,332,5.8,5.8,46,0.00,,,0.00,VWS V14.01,2013-04-10 18:25:00,
2013-04-10 14:30:00,81.2,58.5,29.71,North,349,5.8,5.8,46,0.00,,,0.00,VWS V14.01,2013-04-10 18:30:00,
2013-04-10 14:35:00,81.4,58.7,29.68,NE,51,4.9,5.8,46,0.00,,,0.00,VWS V14.01,2013-04-10 18:35:00,
2013-04-10 14:40:00,82.1,59.3,29.68,NE,51,4.9,4.9,46,0.00,,,0.00,VWS V14.01,2013-04-10 18:40:00,
2013-04-10 14:45:00,81.9,59.2,29.68,NNE,29,4.0,4.9,46,0.00,,,0.00,VWS V14.01,2013-04-10 18:45:00,
2013-04-10 14:50:00,81.9,59.2,29.65,North,2,4.9,4.9,46,0.00,,,0.00,VWS V14.01,2013-04-10 18:50:00,
2013-04-10 14:55:00,82.7,58.4,29.65,NNE,23,5.4,5.4,44,0.00,,,0.00,VWS V14.01,2013-04-10 18:55:00,
2013-04-10 15:00:00,82.5,58.2,29.65,NE,36,6.3,6.3,44,0.00,,,0.00,VWS V14.01,2013-04-10 19:00:00,
2013-04-10 15:05:00,82.7,58.4,29.62,NE,36,6.3,6.3,44,0.00,,,0.00,VWS V14.01,2013-04-10 19:05:00,
2013-04-10 15:09:00,82.7,58.4,29.62,NNE,25,5.4,6.3,44,0.00,,,0.00,VWS V14.01,2013-04-10 19:09:00,
2013-04-10 15:10:00,82.5,58.2,29.62,NNE,25,5.4,5.4,44,0.00,,,0.00,VWS V14.01,2013-04-10 19:10:00,
2013-04-10 15:15:00,82.5,58.2,29.62,NE,51,3.6,5.4,44,0.00,,,0.00,VWS V14.01,2013-04-10 19:15:00,
2013-04-10 15:20:00,83.2,58.8,29.65,NE,51,3.6,3.6,44,0.00,,,0.00,VWS V14.01,2013-04-10 19:20:00,
2013-04-10 15:25:00,83.0,58.7,29.65,NE,41,3.6,6.7,44,0.00,,,0.00,VWS V14.01,2013-04-10 19:25:00,
2013-04-10 15:30:00,83.2,58.8,29.65,NE,44,4.9,4.9,44,0.00,,,0.00,VWS V14.01,2013-04-10 19:30:00,
2013-04-10 15:35:00,83.2,58.8,29.65,WNW,283,0.0,4.9,44,0.00,,,0.00,VWS V14.01,2013-04-10 19:35:00,
2013-04-10 15:40:00,83.4,59.0,29.65,North,3,5.8,5.8,44,0.00,,,0.00,VWS V14.01,2013-04-10 19:40:00,
2013-04-10 15:45:00,83.9,59.5,29.65,North,3,5.8,5.8,44,0.00,,,0.00,VWS V14.01,2013-04-10 19:45:00,
2013-04-10 15:50:00,84.6,60.2,29.65,NNE,29,3.6,5.8,44,0.00,,,0.00,VWS V14.01,2013-04-10 19:50:00,
2013-04-10 15:55:00,84.8,60.3,29.62,North,7,3.1,4.0,44,0.00,,,0.00,VWS V14.01,2013-04-10 19:55:00,
2013-04-10 16:00:00,84.8,60.3,29.62,North,7,3.1,4.0,44,0.00,,,0.00,VWS V14.01,2013-04-10 20:00:00,
2013-04-10 16:05:00,84.5,60.0,29.62,North,6,5.8,5.8,44,0.00,,,0.00,VWS V14.01,2013-04-10 20:05:00,
2013-04-10 16:10:00,84.5,60.0,29.62,North,6,5.8,5.8,44,0.00,,,0.00,VWS V14.01,2013-04-10 20:10:00,
2013-04-10 16:15:00,84.1,59.7,29.62,NW,308,4.9,5.8,44,0.00,,,0.00,VWS V14.01,2013-04-10 20:15:00,
2013-04-10 16:20:00,83.7,57.8,29.62,NNE,17,6.3,6.3,41,0.00,,,0.00,VWS V14.01,2013-04-10 20:20:00,
2013-04-10 16:25:00,83.7,57.8,29.62,NNE,17,6.3,6.3,41,0.00,,,0.00,VWS V14.01,2013-04-10 20:25:00,
2013-04-10 16:30:00,84.1,59.7,29.62,North,6,6.3,6.3,44,0.00,,,0.00,VWS V14.01,2013-04-10 20:30:00,
2013-04-10 16:36:00,83.7,59.3,29.62,NNE,28,5.4,6.3,44,0.00,,,0.00,VWS V14.01,2013-04-10 20:36:00,
2013-04-10 16:40:00,83.6,57.7,29.62,NNE,28,5.4,6.3,41,0.00,,,0.00,VWS V14.01,2013-04-10 20:40:00,
2013-04-10 16:41:00,83.6,59.2,29.62,NNE,28,5.4,5.4,44,0.00,,,0.00,VWS V14.01,2013-04-10 20:41:00,
2013-04-10 16:46:00,83.6,59.2,29.62,NNW,342,3.6,5.8,44,0.00,,,0.00,VWS V14.01,2013-04-10 20:46:00,
2013-04-10 16:50:00,83.6,59.2,29.59,NNW,342,3.6,5.8,44,0.00,,,0.00,VWS V14.01,2013-04-10 20:50:00,
2013-04-10 16:51:00,83.6,59.2,29.59,NNW,342,3.6,3.6,44,0.00,,,0.00,VWS V14.01,2013-04-10 20:51:00,
2013-04-10 16:56:00,83.7,57.8,29.59,North,10,5.8,5.8,41,0.00,,,0.00,VWS V14.01,2013-04-10 20:56:00,
2013-04-10 17:00:00,83.7,57.8,29.59,NE,55,5.4,5.8,41,0.00,,,0.00,VWS V14.01,2013-04-10 21:00:00,
2013-04-10 17:01:00,83.7,57.8,29.59,NE,55,5.4,5.4,41,0.00,,,0.00,VWS V14.01,2013-04-10 21:01:00,
2013-04-10 17:06:00,83.9,58.0,29.59,NE,55,5.4,5.4,41,0.00,,,0.00,VWS V14.01,2013-04-10 21:06:00,
2013-04-10 17:10:00,83.9,58.0,29.59,NNE,19,5.4,5.8,41,0.00,,,0.00,VWS V14.01,2013-04-10 21:10:00,
2013-04-10 17:16:00,83.7,57.8,29.59,NE,53,3.6,5.4,41,0.00,,,0.00,VWS V14.01,2013-04-10 21:16:00,
2013-04-10 17:20:00,83.7,57.8,29.59,NW,311,4.0,5.4,41,0.00,,,0.00,VWS V14.01,2013-04-10 21:20:00,
2013-04-10 17:21:00,83.7,57.8,29.59,NNE,12,5.8,5.8,41,0.00,,,0.00,VWS V14.01,2013-04-10 21:21:00,
2013-04-10 17:29:00,83.6,57.7,29.59,NNE,30,4.9,5.8,41,0.00,,,0.00,VWS V14.01,2013-04-10 21:29:00,
2013-04-10 17:30:00,83.6,57.7,29.59,NNE,30,4.9,5.8,41,0.00,,,0.00,VWS V14.01,2013-04-10 21:30:00,
2013-04-10 17:31:00,83.6,57.7,29.59,NNE,30,4.9,4.9,41,0.00,,,0.00,VWS V14.01,2013-04-10 21:31:00,
2013-04-10 17:36:00,83.6,57.7,29.59,NE,43,4.0,4.9,41,0.00,,,0.00,VWS V14.01,2013-04-10 21:36:00,
2013-04-10 17:39:00,83.7,57.8,29.59,NE,43,4.9,4.9,41,0.00,,,0.00,VWS V14.01,2013-04-10 21:39:00,
2013-04-10 17:40:00,83.7,57.8,29.59,NE,43,4.9,4.9,41,0.00,,,0.00,VWS V14.01,2013-04-10 21:40:00,
2013-04-10 17:41:00,83.7,57.8,29.59,NE,43,4.9,4.9,41,0.00,,,0.00,VWS V14.01,2013-04-10 21:41:00,
2013-04-10 17:46:00,83.6,59.2,29.59,North,353,2.7,4.9,44,0.00,,,0.00,VWS V14.01,2013-04-10 21:46:00,
2013-04-10 17:50:00,83.6,57.7,29.59,NNE,23,7.6,7.6,41,0.00,,,0.00,VWS V14.01,2013-04-10 21:50:00,
2013-04-10 17:51:00,83.6,57.7,29.59,NNE,23,7.6,7.6,41,0.00,,,0.00,VWS V14.01,2013-04-10 21:51:00,
2013-04-10 17:57:00,83.2,57.3,29.59,NNE,26,6.3,7.6,41,0.00,,,0.00,VWS V14.01,2013-04-10 21:57:00,
2013-04-10 18:00:00,83.2,57.3,29.59,North,353,3.1,7.6,41,0.00,,,0.00,VWS V14.01,2013-04-10 22:00:00,
2013-04-10 18:07:00,83.0,58.7,29.59,NNE,12,5.4,5.8,44,0.00,,,0.00,VWS V14.01,2013-04-10 22:07:00,
2013-04-10 18:10:00,83.0,58.7,29.59,NNE,17,4.0,5.8,44,0.00,,,0.00,VWS V14.01,2013-04-10 22:10:00,
2013-04-10 18:17:00,82.8,58.5,29.59,NNE,15,3.1,4.0,44,0.00,,,0.00,VWS V14.01,2013-04-10 22:17:00,
2013-04-10 18:19:00,82.8,58.5,29.59,NNE,18,5.4,5.4,44,0.00,,,0.00,VWS V14.01,2013-04-10 22:19:00,
2013-04-10 18:20:00,82.8,58.5,29.59,NNE,18,5.4,5.4,44,0.00,,,0.00,VWS V14.01,2013-04-10 22:20:00,
2013-04-10 18:27:00,82.8,58.5,29.59,NNE,19,4.9,5.4,44,0.00,,,0.00,VWS V14.01,2013-04-10 22:27:00,
2013-04-10 18:30:00,82.7,58.4,29.59,NE,39,4.0,5.4,44,0.00,,,0.00,VWS V14.01,2013-04-10 22:30:00,
2013-04-10 18:32:00,82.7,58.4,29.59,NE,34,5.8,5.8,44,0.00,,,0.00,VWS V14.01,2013-04-10 22:32:00,
2013-04-10 18:37:00,82.5,58.2,29.59,NNE,22,3.6,5.8,44,0.00,,,0.00,VWS V14.01,2013-04-10 22:37:00,
2013-04-10 18:40:00,82.5,58.2,29.59,NNE,22,3.6,5.8,44,0.00,,,0.00,VWS V14.01,2013-04-10 22:40:00,
2013-04-10 18:42:00,82.5,58.2,29.59,NNE,16,5.4,5.8,44,0.00,,,0.00,VWS V14.01,2013-04-10 22:42:00,
2013-04-10 18:49:00,82.1,57.9,29.59,NNE,24,4.0,7.6,44,0.00,,,0.00,VWS V14.01,2013-04-10 22:49:00,
2013-04-10 18:50:00,82.1,57.9,29.59,NNE,24,4.0,7.6,44,0.00,,,0.00,VWS V14.01,2013-04-10 22:50:00,
2013-04-10 18:52:00,82.1,57.9,29.59,NNE,31,6.3,6.3,44,0.00,,,0.00,VWS V14.01,2013-04-10 22:52:00,
2013-04-10 18:57:00,81.8,57.5,29.59,North,357,2.7,6.3,44,0.00,,,0.00,VWS V14.01,2013-04-10 22:57:00,
2013-04-10 19:00:00,81.8,57.5,29.59,NNE,28,3.6,6.3,44,0.00,,,0.00,VWS V14.01,2013-04-10 23:00:00,
2013-04-10 19:07:00,81.2,58.5,29.59,NE,47,0.0,3.6,46,0.00,,,0.00,VWS V14.01,2013-04-10 23:07:00,
2013-04-10 19:10:00,81.2,58.5,29.59,NNW,346,3.1,3.6,46,0.00,,,0.00,VWS V14.01,2013-04-10 23:10:00,
2013-04-10 19:17:00,81.0,58.3,29.59,NNE,31,0.0,4.0,46,0.00,,,0.00,VWS V14.01,2013-04-10 23:17:00,
2013-04-10 19:20:00,81.0,58.3,29.59,NNW,327,3.1,4.0,46,0.00,,,0.00,VWS V14.01,2013-04-10 23:20:00,
2013-04-10 19:27:00,80.0,57.3,29.59,North,357,0.0,3.1,46,0.00,,,0.00,VWS V14.01,2013-04-10 23:27:00,
2013-04-10 19:30:00,78.9,56.4,29.59,North,357,0.0,3.1,46,0.00,,,0.00,VWS V14.01,2013-04-10 23:30:00,
2013-04-10 19:32:00,78.7,56.2,29.59,North,357,0.0,0.0,46,0.00,,,0.00,VWS V14.01,2013-04-10 23:32:00,
2013-04-10 19:37:00,78.7,56.2,29.59,North,357,0.0,0.0,46,0.00,,,0.00,VWS V14.01,2013-04-10 23:37:00,
2013-04-10 19:40:00,78.7,56.2,29.59,North,357,0.0,0.0,46,0.00,,,0.00,VWS V14.01,2013-04-10 23:40:00,
2013-04-10 19:47:00,76.7,55.7,29.59,North,357,0.0,0.0,48,0.00,,,0.00,VWS V14.01,2013-04-10 23:47:00,
2013-04-10 19:50:00,76.7,55.7,29.59,North,357,0.0,0.0,48,0.00,,,0.00,VWS V14.01,2013-04-10 23:50:00,
2013-04-10 19:52:00,76.7,55.7,29.59,North,357,0.0,0.0,48,0.00,,,0.00,VWS V14.01,2013-04-10 23:52:00,
2013-04-10 19:57:00,75.3,56.9,29.59,North,357,0.0,0.0,53,0.00,,,0.00,VWS V14.01,2013-04-10 23:57:00,
2013-04-10 20:00:00,75.1,56.8,29.59,North,357,0.0,0.0,53,0.00,,,0.00,VWS V14.01,2013-04-11 00:00:00,
2013-04-10 20:02:00,75.1,56.8,29.59,North,357,0.0,0.0,53,0.00,,,0.00,VWS V14.01,2013-04-11 00:02:00,
2013-04-10 20:07:00,75.1,56.8,29.59,North,357,0.0,0.0,53,0.00,,,0.00,VWS V14.01,2013-04-11 00:07:00,
2013-04-10 20:10:00,75.1,56.8,29.59,North,357,0.0,0.0,53,0.00,,,0.00,VWS V14.01,2013-04-11 00:10:00,
2013-04-10 20:12:00,72.6,59.9,29.59,North,357,0.0,0.0,64,0.00,,,0.00,VWS V14.01,2013-04-11 00:12:00,
2013-04-10 20:17:00,72.6,59.9,29.59,North,357,0.0,0.0,64,0.00,,,0.00,VWS V14.01,2013-04-11 00:17:00,
2013-04-10 20:20:00,72.6,59.9,29.59,North,357,0.0,0.0,64,0.00,,,0.00,VWS V14.01,2013-04-11 00:20:00,
2013-04-10 20:22:00,71.1,60.5,29.59,North,357,0.0,0.0,69,0.00,,,0.00,VWS V14.01,2013-04-11 00:22:00,
2013-04-10 20:27:00,70.8,61.0,29.59,North,357,0.0,0.0,71,0.00,,,0.00,VWS V14.01,2013-04-11 00:27:00,
2013-04-10 20:30:00,70.8,61.0,29.59,North,357,0.0,0.0,71,0.00,,,0.00,VWS V14.01,2013-04-11 00:30:00,
2013-04-10 20:32:00,70.8,61.0,29.59,North,357,0.0,0.0,71,0.00,,,0.00,VWS V14.01,2013-04-11 00:32:00,
2013-04-10 20:37:00,70.8,61.0,29.59,North,357,0.0,0.0,71,0.00,,,0.00,VWS V14.01,2013-04-11 00:37:00,
2013-04-10 20:40:00,69.7,60.9,29.59,North,357,0.0,0.0,74,0.00,,,0.00,VWS V14.01,2013-04-11 00:40:00,
2013-04-10 20:42:00,69.7,60.9,29.59,North,357,0.0,0.0,74,0.00,,,0.00,VWS V14.01,2013-04-11 00:42:00,
2013-04-10 20:47:00,69.2,61.2,29.59,North,357,0.0,0.0,76,0.00,,,0.00,VWS V14.01,2013-04-11 00:47:00,
2013-04-10 20:50:00,69.0,61.1,29.59,North,357,0.0,0.0,76,0.00,,,0.00,VWS V14.01,2013-04-11 00:50:00,
2013-04-10 20:53:00,69.0,61.1,29.59,North,357,0.0,0.0,76,0.00,,,0.00,VWS V14.01,2013-04-11 00:53:00,
2013-04-10 20:58:00,69.0,61.1,29.59,North,357,0.0,0.0,76,0.00,,,0.00,VWS V14.01,2013-04-11 00:58:00,
2013-04-10 21:00:00,69.0,61.1,29.59,North,357,0.0,0.0,76,0.00,,,0.00,VWS V14.01,2013-04-11 01:00:00,
2013-04-10 21:03:00,68.3,61.2,29.59,North,357,0.0,0.0,78,0.00,,,0.00,VWS V14.01,2013-04-11 01:03:00,
2013-04-10 21:08:00,68.1,61.0,29.59,North,357,0.0,0.0,78,0.00,,,0.00,VWS V14.01,2013-04-11 01:08:00,
2013-04-10 21:16:00,67.2,61.0,29.59,North,357,0.0,0.0,80,0.00,,,0.00,VWS V14.01,2013-04-11 01:16:00,
2013-04-10 21:20:00,67.0,61.6,29.59,North,357,0.0,0.0,83,0.00,,,0.00,VWS V14.01,2013-04-11 01:20:00,
2013-04-10 21:21:00,67.0,61.6,29.59,North,357,0.0,0.0,83,0.00,,,0.00,VWS V14.01,2013-04-11 01:21:00,
2013-04-10 21:26:00,66.8,61.4,29.59,North,357,0.0,0.0,83,0.00,,,0.00,VWS V14.01,2013-04-11 01:26:00,
2013-04-10 21:30:00,66.6,62.0,29.59,North,357,0.0,0.0,85,0.00,,,0.00,VWS V14.01,2013-04-11 01:30:00,
2013-04-10 21:31:00,66.6,62.0,29.59,North,357,0.0,0.0,85,0.00,,,0.00,VWS V14.01,2013-04-11 01:31:00,
2013-04-10 21:36:00,66.5,62.6,29.59,North,357,0.0,0.0,87,0.00,,,0.00,VWS V14.01,2013-04-11 01:36:00,
2013-04-10 21:40:00,66.3,62.4,29.59,North,357,0.0,0.0,87,0.00,,,0.00,VWS V14.01,2013-04-11 01:40:00,
2013-04-10 21:41:00,66.3,62.4,29.59,North,357,0.0,0.0,87,0.00,,,0.00,VWS V14.01,2013-04-11 01:41:00,
2013-04-10 21:46:00,66.1,62.2,29.59,North,357,0.0,0.0,87,0.00,,,0.00,VWS V14.01,2013-04-11 01:46:00,